﻿測定場所 (Monitoring sites),日付 (Measurement date),時間 (Measurement time),線量率 最大値 (max) μGy/h,線量率 最小値 (min) μGy/h,線量率 平均値 (average) μGy/h,
大田 (Ota),2018-09-30,23:01～24:00,0.0491,0.0341,0.0407,
大田 (Ota),2018-09-30,22:01～23:00,0.0382,0.0316,0.0347,
大田 (Ota),2018-09-30,21:01～22:00,0.0360,0.0317,0.0334,
大田 (Ota),2018-09-30,20:01～21:00,0.0365,0.0318,0.0336,
大田 (Ota),2018-09-30,19:01～20:00,0.0351,0.0321,0.0339,
大田 (Ota),2018-09-30,18:01～19:00,0.0369,0.0339,0.0352,
大田 (Ota),2018-09-30,17:01～18:00,0.0395,0.0338,0.0358,
大田 (Ota),2018-09-30,16:01～17:00,0.0365,0.0317,0.0343,
大田 (Ota),2018-09-30,15:01～16:00,0.0374,0.0319,0.0350,
大田 (Ota),2018-09-30,14:01～15:00,0.0361,0.0324,0.0342,
大田 (Ota),2018-09-30,13:01～14:00,0.0354,0.0321,0.0339,
大田 (Ota),2018-09-30,12:01～13:00,0.0353,0.0317,0.0337,
大田 (Ota),2018-09-30,11:01～12:00,0.0363,0.0324,0.0343,
大田 (Ota),2018-09-30,10:01～11:00,0.0371,0.0334,0.0347,
大田 (Ota),2018-09-30,09:01～10:00,0.0380,0.0337,0.0358,
大田 (Ota),2018-09-30,08:01～09:00,0.0396,0.0340,0.0359,
大田 (Ota),2018-09-30,07:01～08:00,0.0423,0.0356,0.0390,
大田 (Ota),2018-09-30,06:01～07:00,0.0424,0.0360,0.0392,
大田 (Ota),2018-09-30,05:01～06:00,0.0412,0.0351,0.0373,
大田 (Ota),2018-09-30,04:01～05:00,0.0425,0.0362,0.0391,
大田 (Ota),2018-09-30,03:01～04:00,0.0404,0.0345,0.0373,
大田 (Ota),2018-09-30,02:01～03:00,0.0410,0.0332,0.0356,
大田 (Ota),2018-09-30,01:01～02:00,0.0365,0.0321,0.0343,
大田 (Ota),2018-09-30,00:01～01:00,0.0368,0.0322,0.0352,
大田 (Ota),2018-09-29,23:01～24:00,0.0369,0.0322,0.0345,
大田 (Ota),2018-09-29,22:01～23:00,0.0361,0.0320,0.0343,
大田 (Ota),2018-09-29,21:01～22:00,0.0360,0.0321,0.0344,
大田 (Ota),2018-09-29,20:01～21:00,0.0367,0.0325,0.0346,
大田 (Ota),2018-09-29,19:01～20:00,0.0371,0.0333,0.0356,
大田 (Ota),2018-09-29,18:01～19:00,0.0391,0.0345,0.0368,
大田 (Ota),2018-09-29,17:01～18:00,0.0407,0.0330,0.0361,
大田 (Ota),2018-09-29,16:01～17:00,0.0390,0.0338,0.0360,
大田 (Ota),2018-09-29,15:01～16:00,0.0416,0.0351,0.0380,
大田 (Ota),2018-09-29,14:01～15:00,0.0437,0.0364,0.0385,
大田 (Ota),2018-09-29,13:01～14:00,0.0401,0.0355,0.0376,
大田 (Ota),2018-09-29,12:01～13:00,0.0402,0.0355,0.0373,
大田 (Ota),2018-09-29,11:01～12:00,0.0391,0.0347,0.0366,
大田 (Ota),2018-09-29,10:01～11:00,0.0396,0.0340,0.0359,
大田 (Ota),2018-09-29,09:01～10:00,0.0365,0.0324,0.0345,
大田 (Ota),2018-09-29,08:01～09:00,0.0368,0.0321,0.0346,
大田 (Ota),2018-09-29,07:01～08:00,0.0369,0.0325,0.0345,
大田 (Ota),2018-09-29,06:01～07:00,0.0364,0.0327,0.0345,
大田 (Ota),2018-09-29,05:01～06:00,0.0364,0.0327,0.0346,
大田 (Ota),2018-09-29,04:01～05:00,0.0365,0.0326,0.0345,
大田 (Ota),2018-09-29,03:01～04:00,0.0368,0.0330,0.0345,
大田 (Ota),2018-09-29,02:01～03:00,0.0368,0.0324,0.0343,
大田 (Ota),2018-09-29,01:01～02:00,0.0381,0.0328,0.0345,
大田 (Ota),2018-09-29,00:01～01:00,0.0366,0.0326,0.0343,
大田 (Ota),2018-09-28,23:01～24:00,0.0360,0.0323,0.0341,
大田 (Ota),2018-09-28,22:01～23:00,0.0369,0.0316,0.0345,
大田 (Ota),2018-09-28,21:01～22:00,0.0365,0.0323,0.0343,
大田 (Ota),2018-09-28,20:01～21:00,0.0362,0.0326,0.0343,
大田 (Ota),2018-09-28,19:01～20:00,0.0367,0.0315,0.0346,
大田 (Ota),2018-09-28,18:01～19:00,0.0373,0.0323,0.0343,
大田 (Ota),2018-09-28,17:01～18:00,0.0378,0.0322,0.0342,
大田 (Ota),2018-09-28,16:01～17:00,0.0363,0.0326,0.0345,
大田 (Ota),2018-09-28,15:01～16:00,0.0367,0.0325,0.0346,
大田 (Ota),2018-09-28,14:01～15:00,0.0369,0.0322,0.0344,
大田 (Ota),2018-09-28,13:01～14:00,0.0372,0.0322,0.0345,
大田 (Ota),2018-09-28,12:01～13:00,0.0365,0.0327,0.0347,
大田 (Ota),2018-09-28,11:01～12:00,0.0366,0.0330,0.0345,
大田 (Ota),2018-09-28,10:01～11:00,0.0383,0.0329,0.0349,
大田 (Ota),2018-09-28,09:01～10:00,0.0366,0.0330,0.0348,
大田 (Ota),2018-09-28,08:01～09:00,0.0380,0.0334,0.0353,
大田 (Ota),2018-09-28,07:01～08:00,0.0387,0.0330,0.0353,
大田 (Ota),2018-09-28,06:01～07:00,0.0375,0.0332,0.0350,
大田 (Ota),2018-09-28,05:01～06:00,0.0366,0.0331,0.0348,
大田 (Ota),2018-09-28,04:01～05:00,0.0366,0.0328,0.0345,
大田 (Ota),2018-09-28,03:01～04:00,0.0370,0.0331,0.0345,
大田 (Ota),2018-09-28,02:01～03:00,0.0369,0.0325,0.0349,
大田 (Ota),2018-09-28,01:01～02:00,0.0369,0.0326,0.0346,
大田 (Ota),2018-09-28,00:01～01:00,0.0371,0.0327,0.0346,
大田 (Ota),2018-09-27,23:01～24:00,0.0371,0.0316,0.0344,
大田 (Ota),2018-09-27,22:01～23:00,0.0365,0.0321,0.0345,
大田 (Ota),2018-09-27,21:01～22:00,0.0369,0.0319,0.0344,
大田 (Ota),2018-09-27,20:01～21:00,0.0367,0.0330,0.0345,
大田 (Ota),2018-09-27,19:01～20:00,0.0365,0.0320,0.0344,
大田 (Ota),2018-09-27,18:01～19:00,0.0368,0.0328,0.0344,
大田 (Ota),2018-09-27,17:01～18:00,0.0368,0.0321,0.0344,
大田 (Ota),2018-09-27,16:01～17:00,0.0368,0.0329,0.0347,
大田 (Ota),2018-09-27,15:01～16:00,0.0375,0.0330,0.0352,
大田 (Ota),2018-09-27,14:01～15:00,0.0365,0.0332,0.0348,
大田 (Ota),2018-09-27,13:01～14:00,0.0368,0.0332,0.0351,
大田 (Ota),2018-09-27,12:01～13:00,0.0374,0.0329,0.0350,
大田 (Ota),2018-09-27,11:01～12:00,0.0372,0.0334,0.0356,
大田 (Ota),2018-09-27,10:01～11:00,0.0373,0.0328,0.0348,
大田 (Ota),2018-09-27,09:01～10:00,0.0382,0.0328,0.0351,
大田 (Ota),2018-09-27,08:01～09:00,0.0371,0.0323,0.0347,
大田 (Ota),2018-09-27,07:01～08:00,0.0367,0.0331,0.0349,
大田 (Ota),2018-09-27,06:01～07:00,0.0378,0.0345,0.0359,
大田 (Ota),2018-09-27,05:01～06:00,0.0453,0.0351,0.0398,
大田 (Ota),2018-09-27,04:01～05:00,0.0531,0.0402,0.0469,
大田 (Ota),2018-09-27,03:01～04:00,0.0524,0.0442,0.0488,
大田 (Ota),2018-09-27,02:01～03:00,0.0479,0.0363,0.0434,
大田 (Ota),2018-09-27,01:01～02:00,0.0418,0.0357,0.0385,
大田 (Ota),2018-09-27,00:01～01:00,0.0437,0.0368,0.0406,
大田 (Ota),2018-09-26,23:01～24:00,0.0485,0.0394,0.0433,
大田 (Ota),2018-09-26,22:01～23:00,0.0501,0.0403,0.0450,
大田 (Ota),2018-09-26,21:01～22:00,0.0441,0.0369,0.0401,
大田 (Ota),2018-09-26,20:01～21:00,0.0394,0.0321,0.0365,
大田 (Ota),2018-09-26,19:01～20:00,0.0452,0.0360,0.0403,
大田 (Ota),2018-09-26,18:01～19:00,0.0474,0.0382,0.0423,
大田 (Ota),2018-09-26,17:01～18:00,0.0479,0.0394,0.0436,
大田 (Ota),2018-09-26,16:01～17:00,0.0497,0.0377,0.0451,
大田 (Ota),2018-09-26,15:01～16:00,0.0415,0.0323,0.0355,
大田 (Ota),2018-09-26,14:01～15:00,0.0367,0.0326,0.0348,
大田 (Ota),2018-09-26,13:01～14:00,0.0364,0.0328,0.0344,
大田 (Ota),2018-09-26,12:01～13:00,0.0366,0.0321,0.0347,
大田 (Ota),2018-09-26,11:01～12:00,0.0364,0.0327,0.0345,
大田 (Ota),2018-09-26,10:01～11:00,0.0368,0.0324,0.0344,
大田 (Ota),2018-09-26,09:01～10:00,0.0367,0.0321,0.0343,
大田 (Ota),2018-09-26,08:01～09:00,0.0367,0.0320,0.0345,
大田 (Ota),2018-09-26,07:01～08:00,0.0383,0.0322,0.0353,
大田 (Ota),2018-09-26,06:01～07:00,0.0370,0.0334,0.0355,
大田 (Ota),2018-09-26,05:01～06:00,0.0426,0.0355,0.0383,
大田 (Ota),2018-09-26,04:01～05:00,0.0527,0.0408,0.0474,
大田 (Ota),2018-09-26,03:01～04:00,0.0546,0.0400,0.0467,
大田 (Ota),2018-09-26,02:01～03:00,0.0431,0.0331,0.0364,
大田 (Ota),2018-09-26,01:01～02:00,0.0359,0.0319,0.0343,
大田 (Ota),2018-09-26,00:01～01:00,0.0369,0.0323,0.0346,
大田 (Ota),2018-09-25,23:01～24:00,0.0362,0.0321,0.0342,
大田 (Ota),2018-09-25,22:01～23:00,0.0367,0.0323,0.0345,
大田 (Ota),2018-09-25,21:01～22:00,0.0363,0.0328,0.0345,
大田 (Ota),2018-09-25,20:01～21:00,0.0390,0.0329,0.0351,
大田 (Ota),2018-09-25,19:01～20:00,0.0405,0.0350,0.0371,
大田 (Ota),2018-09-25,18:01～19:00,0.0453,0.0361,0.0396,
大田 (Ota),2018-09-25,17:01～18:00,0.0489,0.0389,0.0430,
大田 (Ota),2018-09-25,16:01～17:00,0.0541,0.0453,0.0497,
大田 (Ota),2018-09-25,15:01～16:00,0.0566,0.0478,0.0522,
大田 (Ota),2018-09-25,14:01～15:00,0.0565,0.0442,0.0509,
大田 (Ota),2018-09-25,13:01～14:00,0.0472,0.0333,0.0380,
大田 (Ota),2018-09-25,12:01～13:00,0.0381,0.0335,0.0349,
大田 (Ota),2018-09-25,11:01～12:00,0.0371,0.0324,0.0346,
大田 (Ota),2018-09-25,10:01～11:00,0.0367,0.0318,0.0348,
大田 (Ota),2018-09-25,09:01～10:00,0.0363,0.0322,0.0347,
大田 (Ota),2018-09-25,08:01～09:00,0.0375,0.0328,0.0346,
大田 (Ota),2018-09-25,07:01～08:00,0.0370,0.0314,0.0345,
大田 (Ota),2018-09-25,06:01～07:00,0.0369,0.0326,0.0345,
大田 (Ota),2018-09-25,05:01～06:00,0.0369,0.0325,0.0345,
大田 (Ota),2018-09-25,04:01～05:00,0.0370,0.0330,0.0346,
大田 (Ota),2018-09-25,03:01～04:00,0.0364,0.0324,0.0342,
大田 (Ota),2018-09-25,02:01～03:00,0.0366,0.0320,0.0344,
大田 (Ota),2018-09-25,01:01～02:00,0.0363,0.0315,0.0345,
大田 (Ota),2018-09-25,00:01～01:00,0.0369,0.0326,0.0346,
大田 (Ota),2018-09-24,23:01～24:00,0.0365,0.0328,0.0346,
大田 (Ota),2018-09-24,22:01～23:00,0.0359,0.0325,0.0343,
大田 (Ota),2018-09-24,21:01～22:00,0.0367,0.0329,0.0347,
大田 (Ota),2018-09-24,20:01～21:00,0.0365,0.0322,0.0345,
大田 (Ota),2018-09-24,19:01～20:00,0.0371,0.0323,0.0345,
大田 (Ota),2018-09-24,18:01～19:00,0.0369,0.0323,0.0344,
大田 (Ota),2018-09-24,17:01～18:00,0.0362,0.0325,0.0343,
大田 (Ota),2018-09-24,16:01～17:00,0.0362,0.0319,0.0342,
大田 (Ota),2018-09-24,15:01～16:00,0.0360,0.0322,0.0344,
大田 (Ota),2018-09-24,14:01～15:00,0.0367,0.0328,0.0347,
大田 (Ota),2018-09-24,13:01～14:00,0.0364,0.0325,0.0345,
大田 (Ota),2018-09-24,12:01～13:00,0.0366,0.0322,0.0347,
大田 (Ota),2018-09-24,11:01～12:00,0.0368,0.0333,0.0348,
大田 (Ota),2018-09-24,10:01～11:00,0.0365,0.0317,0.0342,
大田 (Ota),2018-09-24,09:01～10:00,0.0366,0.0321,0.0343,
大田 (Ota),2018-09-24,08:01～09:00,0.0368,0.0325,0.0345,
大田 (Ota),2018-09-24,07:01～08:00,0.0360,0.0328,0.0346,
大田 (Ota),2018-09-24,06:01～07:00,0.0369,0.0337,0.0355,
大田 (Ota),2018-09-24,05:01～06:00,0.0382,0.0328,0.0356,
大田 (Ota),2018-09-24,04:01～05:00,0.0371,0.0326,0.0345,
大田 (Ota),2018-09-24,03:01～04:00,0.0367,0.0326,0.0345,
大田 (Ota),2018-09-24,02:01～03:00,0.0369,0.0327,0.0348,
大田 (Ota),2018-09-24,01:01～02:00,0.0361,0.0320,0.0342,
大田 (Ota),2018-09-24,00:01～01:00,0.0370,0.0317,0.0341,
